Regional Weather Roundup
Issued by NWS Bismarck, ND

Home | Current Version | Previous Version | Text Only | Print | Product List | Glossary On
Versions: 1 2 3 4 5 6 7 8 9 10 11 12 13 14 15 16 17 18 19 20 21 22 23 24 25 26 27 28 29 30 31 32 33 34 35 36 37 38 39 40 41 42 43 44 45 46 47 48 49 50
000
ASUS43 KBIS 212010
RWRBIS

NWR BROADCAST TEXT
NATIONAL WEATHER SERVICE BISMARCK ND
200 PM CST TUE NOV 21 2017

NOTE: "FAIR" INDICATES FEW OR NO CLOUDS BELOW 12,000 FEET WITH NO
SIGNIFICANT WEATHER AND/OR OBSTRUCTIONS TO VISIBILITY.


CITY           SKY/WX    TMP DP  RH WIND       PRES   REMARKS
WILLISTON      SUNNY     15   0  51 W8        30.36F WCI   4
MINOT          CLOUDY    17   4  56 W15       30.35R WCI   2
MINOT AFB      PTSUNNY   15   3  60 NW18      30.34S WCI  -2
BISMARCK       CLOUDY    22   8  55 NW15G23   30.38S WCI   9
DICKINSON      SUNNY     19   0  43 W17       30.29F WCI   4
GARRISON         N/A     13   6  74 W17       30.36R WCI  -4
HETTINGER ARPT SUNNY     21   1  41 W17       30.33S WCI   7
JAMESTOWN      SUNNY     19   8  62 NW18      30.31S WCI   4
CARRINGTON     CLOUDY    16   9  73 W17G25    30.34R WCI   0
HAZEN          CLOUDY    16   5  62 NW14      30.39R WCI   1
LINTON           N/A     19   3  49 NW14      30.35F WCI   6
MANDAN         MOCLDY    16   5  62 NW14      30.36R WCI   1
OAKES            N/A     21   5  49 NW14      30.32F WCI   8
RUGBY          MOCLDY    14   7  73 W14       30.33R WCI  -1
STANLEY        MOCLDY    10   3  72 W15       30.34F WCI  -6
TIOGA          FAIR       7   0  72 W10       30.32F WCI  -8
WATFORD CITY   FAIR      14   0  52 NW8G15    30.34F WCI   3
$$

CITY           SKY/WX    TMP DP  RH WIND       PRES   REMARKS
GRAND FORKS    MOSUNNY   21  11  65 NW16      30.31S WCI   7
GRAND FORKS AF SUNNY     21  10  63 NW13      30.31S WCI   8
DEVILS LAKE    FLURRIES  17  10  74 W14       30.30F WCI   3
FARGO          MOSUNNY   24  10  55 NW22G29   30.32R WCI   9
CANDO          MOCLDY    19   9  63 W14       30.32R WCI   6
CAVALIER       FAIR      21   9  58 NW16G23   30.29S WCI   7
GRAFTON        FAIR      19  10  68 NW18      30.32S WCI   4
GWINNER          N/A     23   7  50 NW16      30.31F WCI  10
LANGDON        FAIR      19  10  68 NW20      30.26R WCI   4
ROLLA          FAIR      16   7  67 W9        30.27S WCI   4
WALHALLA       FAIR      21   9  58 NW18G26   30.29R WCI   6
$$

CITY           SKY/WX    TMP DP  RH WIND       PRES   REMARKS
ABERDEEN       SUNNY     25   7  46 N12       30.36S WCI  14
MOBRIDGE       SUNNY     23   5  46 NW9       30.33S WCI  13
BUFFALO          N/A     29   9  43 NW16      30.23F WCI  17
RAPID CITY     SUNNY     33  20  58 NW5       30.31F
GLASGOW        CLOUDY    13  -2  51 SE7       30.30F WCI   3
SIDNEY         CLOUDY    18   1  47 W5        30.35F WCI  11
WOLF POINT     CLOUDY    17  -1  45 VRB3      30.36F
GLENDIVE       SUNNY     24   6  46 S7        30.31F WCI  16
MILES CITY     SUNNY     25  13  60 SE8       30.28F WCI  16
BAKER          CLOUDY    21   6  52 W10       30.30F WCI  10
$$

CITY           SKY/WX    TMP DP  RH WIND       PRES   REMARKS
BILLINGS       MOSUNNY   34  30  85 SW10      30.20F
GREAT FALLS    SUNNY     41  27  57 SW10      30.09F
REGINA         MOSUNNY    3  -4  72 W6        30.33F WCI  -8
ESTEVAN        CLOUDY     9   0  66 W12       30.34F WCI  -6
$$





USA.gov is the U.S. government's official web portal to all federal, state and local government web resources and services.